Главная страница
METAR-TAF:

METAR-TAF

Аэропорты :

Aeroflex-Andover Airport

Andover, Нью-Джерси, США

широта: 41-00-32N, долгота: 074-44-12W, высота над уровнем моря: 177 м

Текущие метеонаблюдения

Эта сводка был подготовлена 1 час и 4 минут назад, в 11:54 UTC
Штиль
Температура 1°C
Влажность 75%
Давление 1028 hPa

METAR: K12N 181154Z AUTO 00000KT 01/M03 A3035 RMK AO1 SLP288 T00061028 10033 20000 53016

Время: 07:58 (12:58 UTC)


TAF: отсутствует

Метеонаблюдения и прогнозы для более 4000 аэропортов (сводки METAR и TAF).

Имеющиеся станции представлены на карте желтыми и красными точками.

Чтобы увидеть название станции, наведите на нее мышь.

Затем щелкните, чтобы увидеть метеонаблюдения и метеопрогнозы.

Управление картой: чтобы увеличить масштаб, щелкните зеленые кнопки с черным крестиком; чтобы уменьшить масштаб, щелкните зеленую кнопку с тире; для просмотра соседних карт щелкайте зеленые стрелки.


METAR-TAF: